• In Hungary
  • List of Countries
  • For 7 days
  • Water Temperature
  • Satellite Maps
  • Weather Map
  • News
  • Weather Widgets
  • user-avatar
    Login

    Hourly Weather Zagorodeche

    Today, 26 April, Thursday

    Time Temperature Precipitation Wind Pressure Humidity
    00:00 +5°C° 0.1 mm 2 mps 728 mmHg 87%
    01:00 +5°C° 0.1 mm 2 mps 728 mmHg 88%
    02:00 +5°C° 0.1 mm 2 mps 727 mmHg 88%
    03:00 +6°C° 0.3 mm 2 mps 727 mmHg 90%
    04:00 +5°C° 0.3 mm 3 mps 726 mmHg 92%
    05:00 +5°C° 0.3 mm 3 mps 725 mmHg 93%
    06:00 +7°C° 0.3 mm 3 mps 725 mmHg 93%
    07:00 +7°C° 0.3 mm 3 mps 725 mmHg 93%
    08:00 +8°C° 0.3 mm 3 mps 725 mmHg 92%
    09:00 +7°C° 0.5 mm 4 mps 725 mmHg 90%
    10:00 +7°C° 0.5 mm 5 mps 726 mmHg 87%
    11:00 +7°C° 0.5 mm 5 mps 726 mmHg 85%
    12:00 +7°C° 0.3 mm 5 mps 727 mmHg 83%
    13:00 +7°C° 0.3 mm 5 mps 728 mmHg 82%
    14:00 +6°C° 0.3 mm 5 mps 728 mmHg 80%
    15:00 +7°C° 0.1 mm 5 mps 729 mmHg 77%
    16:00 +7°C° 0.1 mm 4 mps 729 mmHg 74%
    17:00 +8°C° 0.1 mm 4 mps 730 mmHg 71%
    18:00 +7°C° 0 mm 4 mps 730 mmHg 76%
    19:00 +7°C° 0 mm 3 mps 731 mmHg 81%
    20:00 +4°C° 0 mm 3 mps 732 mmHg 87%
    21:00 +4°C° 0 mm 3 mps 732 mmHg 87%
    22:00 +4°C° 0 mm 3 mps 732 mmHg 88%
    23:00 +3°C° 0 mm 3 mps 733 mmHg 89%

    Tomorrow, 27 April, Friday

    Time Temperature Precipitation Wind Pressure Humidity
    00:00 +3°C° 0 mm 3 mps 733 mmHg 91%
    01:00 +4°C° 0 mm 2 mps 733 mmHg 93%
    02:00 +3°C° 0 mm 2 mps 733 mmHg 95%
    03:00 +3°C° 0 mm 2 mps 733 mmHg 96%
    04:00 +3°C° 0 mm 2 mps 733 mmHg 97%
    05:00 +3°C° 0 mm 2 mps 734 mmHg 97%
    06:00 +4°C° 0 mm 2 mps 734 mmHg 93%
    07:00 +4°C° 0 mm 3 mps 735 mmHg 88%
    08:00 +5°C° 0 mm 3 mps 735 mmHg 84%
    09:00 +7°C° 0.2 mm 3 mps 735 mmHg 79%
    10:00 +8°C° 0.2 mm 3 mps 735 mmHg 74%
    11:00 +8°C° 0.2 mm 4 mps 735 mmHg 68%
    12:00 +10°C° 0.2 mm 4 mps 736 mmHg 64%
    13:00 +11°C° 0.2 mm 4 mps 736 mmHg 59%
    14:00 +12°C° 0.2 mm 4 mps 736 mmHg 54%
    15:00 +11°C° 0.3 mm 4 mps 736 mmHg 56%
    16:00 +11°C° 0.3 mm 3 mps 735 mmHg 58%
    17:00 +11°C° 0.3 mm 3 mps 735 mmHg 61%
    18:00 +9°C° 0.2 mm 2 mps 736 mmHg 68%
    19:00 +8°C° 0.2 mm 2 mps 736 mmHg 75%
    20:00 +7°C° 0.2 mm 1 mps 736 mmHg 83%
    21:00 +6°C° 0.1 mm 2 mps 737 mmHg 86%
    22:00 +6°C° 0.1 mm 2 mps 737 mmHg 89%
    23:00 +5°C° 0.1 mm 2 mps 737 mmHg 91%

    Day after tomorrow, 28 April, Saturday

    Time Temperature Precipitation Wind Pressure Humidity
    00:00 +5°C° 0.1 mm 2 mps 737 mmHg 93%
    01:00 +4°C° 0.1 mm 2 mps 738 mmHg 95%
    02:00 +4°C° 0.1 mm 2 mps 738 mmHg 96%
    03:00 +4°C° 0 mm 2 mps 738 mmHg 96%
    04:00 +3°C° 0 mm 2 mps 739 mmHg 96%
    05:00 +3°C° 0 mm 2 mps 739 mmHg 96%
    06:00 +4°C° 0 mm 2 mps 739 mmHg 89%
    07:00 +5°C° 0 mm 3 mps 740 mmHg 81%
    08:00 +7°C° 0 mm 3 mps 740 mmHg 74%
    09:00 +8°C° 0 mm 3 mps 740 mmHg 69%
    10:00 +9°C° 0 mm 3 mps 741 mmHg 65%
    11:00 +10°C° 0 mm 3 mps 741 mmHg 60%
    12:00 +11°C° 0 mm 3 mps 741 mmHg 56%
    13:00 +12°C° 0 mm 3 mps 741 mmHg 52%
    14:00 +13°C° 0 mm 3 mps 741 mmHg 48%
    15:00 +13°C° 0 mm 3 mps 741 mmHg 48%
    16:00 +13°C° 0 mm 3 mps 740 mmHg 48%
    17:00 +13°C° 0 mm 3 mps 740 mmHg 47%
    18:00 +12°C° 0 mm 2 mps 740 mmHg 54%
    19:00 +9°C° 0 mm 2 mps 740 mmHg 60%
    20:00 +8°C° 0 mm 2 mps 740 mmHg 66%
    21:00 +8°C° 0.2 mm 2 mps 740 mmHg 68%
    22:00 +8°C° 0.2 mm 3 mps 740 mmHg 71%
    23:00 +8°C° 0.2 mm 3 mps 739 mmHg 73%

    29 April, Sunday

    Time Temperature Precipitation Wind Pressure Humidity
    00:00 +8°C° 1.9 mm 3 mps 739 mmHg 79%
    01:00 +7°C° 1.9 mm 4 mps 738 mmHg 84%
    02:00 +7°C° 1.9 mm 4 mps 737 mmHg 90%
    03:00 +7°C° 0.2 mm 4 mps 737 mmHg 90%
    04:00 +7°C° 0.2 mm 4 mps 736 mmHg 90%
    05:00 +7°C° 0.2 mm 4 mps 736 mmHg 90%
    06:00 +10°C° 0 mm 4 mps 736 mmHg 87%
    07:00 +11°C° 0 mm 4 mps 736 mmHg 84%
    08:00 +12°C° 0 mm 4 mps 736 mmHg 80%
    09:00 +13°C° 0.1 mm 5 mps 737 mmHg 73%
    10:00 +14°C° 0.1 mm 5 mps 737 mmHg 65%
    11:00 +15°C° 0.1 mm 6 mps 737 mmHg 57%
    12:00 +15°C° 0 mm 6 mps 738 mmHg 56%
    13:00 +15°C° 0 mm 6 mps 738 mmHg 55%
    14:00 +15°C° 0 mm 6 mps 738 mmHg 55%
    15:00 +14°C° 0 mm 5 mps 739 mmHg 60%
    16:00 +12°C° 0 mm 5 mps 739 mmHg 65%
    17:00 +11°C° 0 mm 4 mps 739 mmHg 70%
    18:00 +10°C° 0 mm 4 mps 740 mmHg 74%
    19:00 +9°C° 0 mm 3 mps 740 mmHg 78%
    20:00 +8°C° 0 mm 2 mps 741 mmHg 82%
    21:00 +7°C° 0 mm 2 mps 741 mmHg 86%
    22:00 +6°C° 0 mm 2 mps 741 mmHg 89%
    23:00 +6°C° 0 mm 2 mps 741 mmHg 92%

    30 April, Monday

    Time Temperature Precipitation Wind Pressure Humidity
    00:00 +6°C° 0 mm 1 mps 741 mmHg 93%
    01:00 +6°C° 0 mm 1 mps 742 mmHg 94%
    02:00 +5°C° 0 mm 1 mps 742 mmHg 96%
    03:00 +5°C° 0 mm 1 mps 742 mmHg 96%
    04:00 +5°C° 0 mm 1 mps 742 mmHg 96%
    05:00 +5°C° 0 mm 1 mps 743 mmHg 96%
    06:00 +7°C° 0 mm 1 mps 743 mmHg 85%
    07:00 +9°C° 0 mm 1 mps 743 mmHg 74%
    08:00 +11°C° 0 mm 1 mps 743 mmHg 63%
    09:00 +13°C° 0 mm 1 mps 743 mmHg 55%
    10:00 +15°C° 0 mm 1 mps 743 mmHg 46%
    11:00 +16°C° 0 mm 1 mps 743 mmHg 38%
    12:00 +18°C° 0 mm 1 mps 743 mmHg 36%
    13:00 +19°C° 0 mm 1 mps 742 mmHg 33%
    14:00 +20°C° 0 mm 1 mps 742 mmHg 30%
    15:00 +19°C° 0 mm 1 mps 742 mmHg 33%
    16:00 +19°C° 0 mm 1 mps 742 mmHg 35%
    17:00 +19°C° 0 mm 1 mps 741 mmHg 37%
    18:00 +16°C° 0.1 mm 1 mps 741 mmHg 44%
    19:00 +14°C° 0.1 mm 2 mps 741 mmHg 52%
    20:00 +13°C° 0.1 mm 2 mps 741 mmHg 60%
    21:00 +12°C° 0.3 mm 2 mps 741 mmHg 67%
    22:00 +12°C° 0.3 mm 2 mps 741 mmHg 75%
    23:00 +10°C° 0.3 mm 2 mps 740 mmHg 82%

    1 May, Tuesday

    Time Temperature Precipitation Wind Pressure Humidity
    00:00 +10°C° 0 mm 2 mps 740 mmHg 85%
    01:00 +9°C° 0 mm 2 mps 740 mmHg 87%
    02:00 +9°C° 0 mm 3 mps 739 mmHg 90%
    03:00 +9°C° 0 mm 2 mps 739 mmHg 92%
    04:00 +9°C° 0 mm 2 mps 739 mmHg 94%
    05:00 +9°C° 0 mm 2 mps 739 mmHg 95%
    06:00 +12°C° 0 mm 2 mps 739 mmHg 89%
    07:00 +13°C° 0 mm 3 mps 739 mmHg 83%
    08:00 +16°C° 0 mm 3 mps 738 mmHg 76%
    09:00 +18°C° 0 mm 3 mps 738 mmHg 68%
    10:00 +20°C° 0 mm 3 mps 738 mmHg 59%
    11:00 +22°C° 0 mm 4 mps 738 mmHg 51%
    12:00 +23°C° 0.1 mm 4 mps 738 mmHg 51%
    13:00 +23°C° 0.1 mm 4 mps 738 mmHg 51%
    14:00 +23°C° 0.1 mm 4 mps 738 mmHg 51%
    15:00 +22°C° 0.7 mm 4 mps 738 mmHg 60%
    16:00 +20°C° 0.7 mm 3 mps 738 mmHg 70%
    17:00 +19°C° 0.7 mm 3 mps 738 mmHg 79%
    18:00 +18°C° 0.2 mm 3 mps 739 mmHg 84%
    19:00 +17°C° 0.2 mm 3 mps 739 mmHg 88%
    20:00 +14°C° 0.2 mm 3 mps 740 mmHg 93%
    21:00 +14°C° 0 mm 3 mps 740 mmHg 93%
    22:00 +13°C° 0 mm 3 mps 741 mmHg 92%
    23:00 +12°C° 0 mm 3 mps 741 mmHg 92%
    Show more